Terminal Aerodrome Forecast
Issued by NWS

Home | Current Version | Previous Version | Graphics & Text | Print | Product List | Glossary On
Versions: 1 2 3 4 5 6 7 8 9 10 11 12 13 14 15
000
FTUS43 KGRB 091100
TAFCWA
TAF
KCWA 091133Z 0912/1012 30004KT P6SM VCSH SCT020 BKN035
     FM091500 30009KT P6SM BKN040
     FM091700 30009G17KT P6SM SCT030 BKN060
     FM100100 VRB03KT P6SM SCT070 SCT100=

USA.gov is the U.S. government's official web portal to all federal, state and local government web resources and services.